This demonstration page uses our WeatherBlox Daily Observations layout. Learn more.

Left ArrowRight Arrow

53.62937, 11.41316

Hourly Observations for January 6, 2016

Temp ( °F °C ) Dew Point ( °F °C ) Humidity (%) Winds ( mph kmh ) Pressure ( in mb ) Visibility ( mi km ) Precip ( " mm )
5:20 am 05:20 Mostly Clear 14 -10 10 -12 85 85 ENE 9 15 29.65 1004 4 6 N/A
5:50 am 05:50 Mostly Clear 12 -11 9 -13 85 85 ENE 10 17 29.65 1004 4 6 N/A
6:20 am 06:20 Mostly Clear 12 -11 9 -13 85 85 ENE 9 15 29.68 1005 4 6 N/A
6:50 am 06:50 Mostly Clear 12 -11 9 -13 85 85 ENE 9 15 29.68 1005 4 6 N/A
7:20 am 07:20 Mostly Clear 12 -11 7 -14 79 79 ENE 10 17 29.68 1005 4 6 N/A
7:50 am 07:50 Mostly Clear 12 -11 7 -14 79 79 ENE 10 17 29.68 1005 4 6 N/A
8:20 am 08:20 Mostly Clear 10 -12 7 -14 85 85 ENE 10 17 29.68 1005 4 6 N/A
8:50 am 08:50 Mostly Sunny 10 -12 7 -14 85 85 ENE 8 13 29.68 1005 4 6 N/A
9:20 am 09:20 Mostly Sunny 10 -12 7 -14 85 85 ENE 8 13 29.68 1005 4 6 N/A
9:50 am 09:50 Mostly Sunny 12 -11 9 -13 85 85 ENE 8 13 29.68 1005 4 6 N/A
10:20 am 10:20 Mostly Sunny 12 -11 9 -13 85 85 ENE 6 9 29.68 1005 4 6 N/A
10:50 am 10:50 Mostly Sunny 12 -11 9 -13 85 85 E 5 7 29.71 1006 4 6 N/A
11:20 am 11:20 Mostly Sunny 14 -10 10 -12 85 85 ENE 5 7 29.68 1005 4 6 N/A
11:50 am 11:50 Mostly Sunny 16 -9 12 -11 86 86 E 7 11 29.68 1005 4 7 N/A
12:20 pm 12:20 Mostly Sunny 19 -7 14 -10 79 79 E 9 15 29.68 1005 4 7 N/A
12:50 pm 12:50 Mostly Sunny 21 -6 16 -9 80 80 ENE 12 19 29.68 1005 5 8 N/A
1:20 pm 13:20 Mostly Sunny 21 -6 14 -10 74 74 ENE 12 19 29.68 1005 6 9 N/A
1:50 pm 13:50 Mostly Sunny 21 -6 14 -10 74 74 ENE 13 20 29.68 1005 6 9 N/A
2:20 pm 14:20 Mostly Sunny 23 -5 16 -9 74 74 ENE 10 17 29.68 1005 7 11 N/A
2:50 pm 14:50 Mostly Sunny 23 -5 16 -9 74 74 ENE 12 19 29.68 1005 7 11 N/A
3:20 pm 15:20 Mostly Sunny 23 -5 14 -10 68 68 ENE 13 20 29.68 1005 7 11 N/A
3:50 pm 15:50 Mostly Sunny 21 -6 14 -10 74 74 ENE 10 17 29.68 1005 7 11 N/A
4:20 pm 16:20 Mostly Clear 19 -7 14 -10 79 79 NE 8 13 29.71 1006 7 11 N/A
4:50 pm 16:50 Mostly Clear 16 -9 12 -11 86 86 NE 7 11 29.71 1006 7 11 N/A
5:20 pm 17:20 Mostly Clear 18 -8 12 -11 79 79 NE 8 13 29.71 1006 7 11 N/A
5:50 pm 17:50 Mostly Clear 16 -9 12 -11 86 86 ENE 7 11 29.71 1006 7 11 N/A

Powered by AerisWeather